Showing default

REFLECTOR, 27005

Orbit data source: Space-Track

REFLECTOR, 27005 is a Commonwealth of Independent States-origin payload satellite in SSO that was launched on Mon, 10 Dec 2001 UTC via a ZENIT-2 launch vehicle from the Tyuratam Missile And Space Complex (TTMTR). Payloads include a variety of satellites, spacecraft, and rockets equipped with specific instruments for various scientific and technological missions. These include communications satellites like Starlink; space stations such as the ISS; scientific satellites like the Hubble; Earth observation satellites from companies like Planet Labs, Umbra, and HawkEye 360; GPS; miniature CubeSats for education and research; and military/defense satellites.

Loading next visibility...
REFLECTOR details
Identifier
27005, 2001-056E
Orbit
SSO
Last TLE update5 hours ago
Origin
Flag of CISAFRL/NIIPP (CIS)
ManufacturerNIIPP
MissionDefense Calibration
Bus & MotorREFLEKTOR, Unknown motor
Mass8 kg wet, 8 kg dry
Launch date (UTC)
2001-12-10 (23 years ago)
Launch vehicle
ZENIT-2
Launch site
Tyuratam Missile And Space Complex (TTMTR)
Object type
Payload
Rocket body
Debris
Shape & HBRBox + 4 Fin, 1.4 m
Radar Cross Section1.680 m², Medium (>0.1 m² and < 1m²)

Expand to show TLE details & history

TLE from 5 hours ago
0 REFLECTOR
1 27005U 01056E   24361.47326476  .00000259  00000-0  33971-3 0  9993
2 27005  99.7022 153.5121 0018773  58.3685 301.9290 13.71260903152839
Epoch: 2024-12-26T11:21Z
Definitive object data (Epoch: 2024-12-26T11:21:30.075Z)
Latitude0.00001°
Longitude-112.31537°
Altitude990.559 km
Speed7.36 km/s
True Right ascension10h 14m 02s
True Declination0° 00' 00"
Sunlit
Object was in daylight at TLE epoch
Visualization TLE readout
Latitude-75.67603°
Longitude26.11601°
Altitude1,035.264 km
Speed7.327 km/s
Apparent Right ascension02h 02m 12s
Apparent Declination-69° 10' 10"
Sunlit
Object is in daylight
Visualization observer readout
Local Sidereal Time15:29:21
Azimuth165.351° S
Elevation-58.537°
Doppler factor1
Orbital elements
Apogee altitude1,006.157 km
Perigee altitude978.484 km
Semi-major axis7,370.458 km
Eccentricity0.0018773
Inclination99.7022°
RAAN153.5121°
Arg. of periapsis58.3685°
True anomaly301.7462°
Mean anomaly301.929°
Eccentric anomaly301.83762°
Mean motion3.43006 °/min
BSTAR0.00033971
Orbital period104.95 mins
Loading maneuver chart data...
Loading historical data...
Loading historical data...
Loading historical data...
Loading historical data...
Loading historical data...
Loading historical data...
Loading historical data...

REFLECTOR Visibility forecast

Observer location: undefined°, undefined

Span
Click to sort rows by Start time (UTC) header in descending order
Start Az.
Max El. time (UTC)
Max El. Az.
Max El.
End time (UTC)
End Az.
10 mins2024-12-26 22:28:14.762Z37.043° NE2024-12-26 22:33:14.762Z101.772° ESE29.582°2024-12-26 22:38:14.762Z160.217° S
9 mins2024-12-27 00:12:14.762Z352.106° N2024-12-27 00:16:14.762Z300.254° NW30.781°2024-12-27 00:21:14.762Z233.582° WSW
4 mins2024-12-27 08:35:14.762Z70.07° E2024-12-27 08:36:14.762Z59.281° ENE14.096°2024-12-27 08:39:14.762Z28.53° NE
11 mins2024-12-27 10:14:14.762Z162.923° S2024-12-27 10:19:14.762Z15.677° NNE44.979°2024-12-27 10:25:14.762Z345.613° N
|